Location: Oak Glen
(34.0495°N, 116.9470°E)
Time: 02:09:22
(UTC-08:00)

Vanguard 1 - Pass Details

Date: 20 June 2018
Orbit: 649 x 3834 km, 34.3° (Epoch: 18 November)

Event Time Altitude Azimuth Distance (km) Brightness Sun altitude
Rises 15:40:11 0° 246° (WSW) 4,505 12.8 18.0°
Reaches altitude 10° 15:42:36 10° 245° (WSW) 3,820 12.6 18.5°
Maximum altitude 15:53:18 78° 161° (SSE) 2,457 12.4 20.7°
Drops below altitude 10° 16:13:14 10° 79° (E) 6,593 16.3 24.7°
Sets 16:18:58 0° 79° (ENE) 7,846 16.0 25.8°
